FENGYUN 1C DEB, 31761

Orbit data source: Space-Track

FENGYUN 1C DEB, 31761 is space debris in SSO originally from a launch on Mon, 10 May 1999 UTC launched from the Taiyaun Space Center, China (TSC). Fengyun 1C debris stems from the Chinese weather satellite Fengyun-1C, which was intentionally destroyed by a Chinese anti-satellite missile in 2007. This event dramatically increased the amount of space debris, with thousands of trackable fragments posing hazards to satellites and human spaceflight. The Fengyun 1C debris cloud has become a focal point in discussions about space sustainability and the need for international regulations to prevent the creation of new debris.

Loading next visibility...
Identifier
31761, 1999-025CFL
Orbit
SSO
Country
Flag of CNCN / PRC
Related business
Manufacturer
Unknown
Mission
Spacecraft
Bus & Motor
Unknown
Mass
Unknown
Launch date (UTC)
1999-05-10 (27 years ago)
Launch vehicle
Unknown
Launch site
Taiyaun Space Center, China (TSC)
Object type
Payload
Rocket body
Debris
Shape & HBR
Unknown shape, 0.1 m
Radar Cross Section
Medium (>0.1 m² and <1 m²)

Expand to show TLE details & history
Last TLE update: 5 hours ago

TLE from 5 hours ago
0 FENGYUN 1C DEB
1 31761U 99025CFL 26236.56231037  .00002881  00000-0  67413-3 0  9992
2 31761  98.6054  93.9337 0460921 262.2981  92.5633 14.06177919616891
Epoch: 2026-08-24T13:29Z
TLE epoch observation values (Epoch: 2026-08-24T13:29:43.615Z)
Latitude
-0.00008°
Longitude
-81.34025°
Altitude
905.641 km
Speed
7.384 km/s
True Right ascension
06h 15m 44s
True Declination
0° 00' 00"
Sunlit
Object was in daylight at epoch
Visualization orbit readout
Latitude
Unknown
Longitude
Unknown
Altitude
Unknown
Speed
Unknown
Apparent Right ascension
Unknown
Apparent Declination
Unknown
Sunlit
N/A
Visualization observer readout
Local Sidereal Time
09:59:54
Azimuth
Unknown
Elevation
Unknown
Doppler factor
Unknown
Orbital elements
Apogee altitude
1,203.709 km
Perigee altitude
535.578 km
Semi-major axis
7,247.781 km
Eccentricity
0.04609
Inclination
98.6054°
RAAN
93.9337°
Arg. of periapsis
262.2981°
True anomaly
97.81884°
Mean anomaly
92.5633°
Eccentric anomaly
95.19334°
Mean motion
3.51751 °/min
Orbital period
102.35 mins
BSTAR
0.00067413
Loading maneuver chart data...
Computing Atmospheric mass density...

Documentation

Showing up to 5 results
|